Regional Weather Roundup
Issued by NWS Upton, NY

Current Version | Previous Version | Text Only | Print | Product List | Glossary On
Versions: 1 2 3 4 5 6 7 8 9 10 11 12 13 14 15 16 17 18 19 20 21 22 23 24 25 26 27 28 29 30 31 32 33 34 35 36 37 38 39 40 41 42 43 44 45 46 47 48 49 50
000
ASUS41 KOKX 280207
RWROKX

REGIONAL WEATHER ROUNDUP
NATIONAL WEATHER SERVICE NEW YORK NY
1000 PM EDT MON APR 27 2015

NOTE: "FAIR" INDICATES FEW OR NO CLOUDS BELOW 12,000 FEET WITH NO
SIGNIFICANT WEATHER AND/OR OBSTRUCTIONS TO VISIBILITY.

NYZ071-072-176-178-NJZ106-104-280300-
NEW YORK CITY METRO AREA


CITY           SKY/WX    TMP DP  RH WIND       PRES   REMARKS
CENTRAL PARK   CLOUDY    55  32  41 NW9G17    29.74R
LAGUARDIA APRT CLOUDY    54  35  48 NW18G29   29.71R
KENNEDY INTL   MOCLDY    57  32  38 NW21G26   29.71R
NEWARK/LIBERTY MOCLDY    55  33  43 NW14G25   29.73R
BRNX BOT. GARD   N/A     54  34  47 W8        29.73R
TETERBORO      CLOUDY    54  34  46 NW12G22   29.72R
$$

NYZ177-179-078>081-280300-
LONG ISLAND NEW YORK

CITY           SKY/WX    TMP DP  RH WIND       PRES   REMARKS
FARMINGDALE    CLOUDY    55  36  48 N15G24    29.69R
ISLIP          CLOUDY    53  38  56 NW21G30   29.66R
SHIRLEY        CLOUDY    53  38  56 N15G24    29.67R
WESTHAMPTON    CLOUDY    53  37  54 NW14G20   29.67R
MONTAUK POINT    N/A     51  38  60 NW8       29.64R
$$

NYZ052-065-067-280300-
HUDSON VALLEY

CITY           SKY/WX    TMP DP  RH WIND       PRES   REMARKS
WHITE PLAINS   MOCLDY    52  35  52 N17G26    29.70R
NEWBURGH       NOT AVBL
MONTGOMERY     CLOUDY    52  36  54 NW12      29.73S
POUGHKEEPSIE   CLOUDY    52  40  63 N5        29.73R
ALBANY         CLOUDY    51  39  63 NW14      29.74S
$$

NJZ001-105-106-008-010-013-015-019>022-104-280300-
NEW JERSEY

CITY           SKY/WX    TMP DP  RH WIND       PRES   REMARKS
NEWARK/LIBERTY MOCLDY    55  33  43 NW14G25   29.73R
TETERBORO      CLOUDY    54  34  46 NW12G22   29.72R
CALDWELL       CLOUDY    53  33  46 NW9       29.74R
MORRISTOWN     MOCLDY    52  34  50 NW8G18    29.75R
SOMERVILLE     CLOUDY    52  32  46 NW10G20   29.75R
SUSSEX         CLOUDY    51  33  50 MISG      29.77R
ANDOVER          N/A     49  33  54 VRB5      29.77R
TRENTON        PTCLDY    51  31  46 N9        29.76R
MILLVILLE      CLOUDY    54  33  45 W9        29.77S
ATLANTIC CITY  CLOUDY    54  32  43 W10       29.75R
WRIGHTSTOWN    CLOUDY    53  33  46 N13G18    29.73R
TOMS RIVER     CLOUDY    54  32  43 NW21      29.73S
BELMAR         CLOUDY    54  30  40 NW17G25   29.73R
$$

PAZ047>061-062-071-280300-
EASTERN PENNSYLVANIA

CITY           SKY/WX    TMP DP  RH WIND       PRES   REMARKS
PHILADELPHIA   PTCLDY    55  31  39 NW14      29.78R
ALLENTOWN      CLOUDY    51  33  50 NW13G20   29.80S
SCRANTON       CLOUDY    47  35  63 N10       29.82R
$$

CTZ002-004>006-009-010-012-RIZ004-006-007-MAZ004-011-015-280300-
SOUTHERN NEW ENGLAND
 IN CT

CITY           SKY/WX    TMP DP  RH WIND       PRES   REMARKS
BRADLEY INTL   MOCLDY    52  38  58 NW12      29.66S
HARTFORD       CLOUDY    53  37  54 N14       29.67S
DANBURY        CLOUDY    50  37  61 NW13G21   29.72R
WTRBRY/OXFORD  CLOUDY    50  36  57 NW12G20   29.70R
BRIDGEPORT     CLOUDY    54  40  59 N13G23    29.68R
MERIDEN        CLOUDY    53  37  54 NW10      29.67R
NEW HAVEN      CLOUDY    54  37  52 N10G21    29.67R
CHESTER        CLOUDY    52  37  58 NW16G22   29.66R
GROTON         CLOUDY    53  36  52 N10       29.62S
WILLIMANTIC    PTCLDY    52  37  56 NW15      29.64S

 IN RI

CITY           SKY/WX    TMP DP  RH WIND       PRES   REMARKS
PROVIDENCE     CLEAR     51  37  58 NW9       29.60S
BLOCK ISLAND   CLOUDY    52  36  54 N9        29.61S
WESTERLY       CLOUDY    53  38  56 N13G18    29.62S

 IN MA

CITY           SKY/WX    TMP DP  RH WIND       PRES   REMARKS
BOSTON         LGT RAIN  51  41  68 N13G22    29.60R
WORCESTER      CLEAR     47  37  68 NW15G21   29.62R
WESTFIELD      MOCLDY    51  37  58 N13       29.67R
PROVINCETOWN   MOCLDY   N/A N/A N/A N13G23    29.58R
NANTUCKET      CLOUDY    47  41  80 W9        29.55S
$$

ANZ330-335-338-340-345-350-353-355-280300-
COASTAL MARINE OBSERVATIONS


STATION/POSITION TIME  SKY/WX   TEMP    WIND        PRES    VSBY  WAVE
                                AIR SEA DIR/SP/G                  HT/PER
                 (UTC)          (F)     (DEG/KT/KT) (MB)    (MI)  (FT/S)
NY HARB ENTRANCE 0150            52 47  310/ 19/ 21 1005.1          2/ 3
4S FIRE IS       0103               45                N/A           2/10
20S FIRE ISLAND  0150            49 44  310/ 12/ 14 1004.9          2/ 9
23SW MTP         0150            49 44  330/ 12/ 14 1003.1          2/ 8
HUDSON CANYON    NOT AVBL
EXECUTION ROCKS  NOT AVBL
WESTERN LI SOUND NOT AVBL
CENTRAL LI SOUND NOT AVBL
EASTERN LI SOUND 0100            52     350/ 17/ 23   N/A
ROBBINS REEF     0100            56     320/ 18/ 24 1004.7
$$


>>>>>>>>>>>>>>>>>>>>>>>>>>>> KEY <<<<<<<<<<<<<<<<<<<<<<<<<<<
>                                                          <
>     SKY/WX - SKY CONDITION/PRESENT WEATHER               <
>     TMP    - TEMPERATURE IN FAHRENHEIT                   <
>     DP     - DEWPOINT IN FAHRENHEIT                      <
>     RH     - RELATIVE HUMIDITY IN PERCENT                <
>     WIND   - DIRECTION AND SPEED IN MPH                  <
>     PRES   - MEAN SEA LEVEL PRESSURE IN INCHES OF HG     <
>     WCI    - WIND CHILL INDEX                            <
>     VSB    - VISIBILITY IN MILES                         <
>     HX     - HEAT INDEX                                  <
>     TC     - TEMPERATURE IN CELSIUS                      <
>     VRB    - VARIABLE WIND DIRECTION                     <
>                                                          <
>>>>>>>>>>>>>>>>>>>>>>>>>>>> KEY <<<<<<<<<<<<<<<<<<<<<<<<<<<





USA.gov is the U.S. government's official web portal to all federal, state and local government web resources and services.